Location: Castle Hill Houses
(40.8186°N, 73.8497°W)
Time: 12:20:59
(UTC+00:00)

Genesis I - Pass Details

Date: 26 January 2020
Orbit: 495 x 528 km, 64.5° (Epoch: 16 February)

Event Time Altitude Azimuth Distance (km) Brightness Sun altitude
Exits shadow 10:00:08 56° 86° (E) 604 3.7 -24.8°
Drops below altitude 10° 10:03:30 10° 136° (SE) 1,702 6.4 -24.1°
Sets 10:05:39 0° 140° (SE) 2,577 7.4 -23.7°
